This is the latest recevied weather packets stored in our database for station/object IV3CGM-1. If no packets are shown the sender has not sent any weather packets the latest 1 day(s).
| Time | Temp. | Humidity | Pressure | Rain* | Wind** | Luminosity | Snow |
|---|---|---|---|---|---|---|---|
| 1777993638 | 7.78° C | 99% | - | - | 0.89 m/s, 143° | - | - |
| 1777993000 | 7.78° C | 99% | - | - | 1.34 m/s, 127° | - | - |
| 1777992425 | 7.78° C | 99% | - | - | 1.34 m/s, 114° | - | - |
| 1777991839 | 7.78° C | 99% | - | - | 0 m/s | - | - |
| 1777991255 | 7.78° C | 99% | - | - | 1.79 m/s, 114° | - | - |
| 1777990688 | 7.78° C | 99% | - | - | 0 m/s | - | - |
| 1777990119 | 7.78° C | 99% | - | - | 2.24 m/s, 162° | - | - |
| 1777989496 | 7.78° C | 99% | - | - | 1.79 m/s, 186° | - | - |
| 1777988918 | 7.78° C | 99% | - | - | 2.24 m/s, 162° | - | - |
| 1777988342 | 7.78° C | 99% | - | - | 2.24 m/s, 156° | - | - |
| 1777987720 | 7.78° C | 99% | - | - | 0 m/s | - | - |
| 1777987117 | 7.78° C | 99% | - | - | 1.34 m/s, 300° | - | - |
| 1777986543 | 7.78° C | 99% | - | - | 0 m/s | - | - |
| 1777985932 | 7.78° C | 99% | - | - | 0.89 m/s, 108° | - | - |
| 1777985367 | 7.78° C | 99% | - | - | 1.79 m/s, 222° | - | - |
| 1777984768 | 7.78° C | 99% | - | - | 2.68 m/s, 198° | - | - |
| 1777984204 | 7.78° C | 99% | - | - | 2.24 m/s, 174° | - | - |
| 1777983569 | 7.78° C | 99% | - | - | 1.79 m/s, 138° | - | - |
| 1777982968 | 7.78° C | 99% | - | - | 1.34 m/s, 138° | - | - |
| 1777982343 | 7.78° C | 99% | - | - | 0 m/s | - | - |
| 1777981731 | 7.78° C | 99% | - | - | 0.89 m/s, 233° | - | - |
| 1777981117 | 7.78° C | 99% | - | - | 1.34 m/s, 120° | - | - |
| 1777980544 | 7.78° C | 99% | - | - | 0.89 m/s, 96° | - | - |
| 1777979918 | 7.78° C | 99% | - | - | 1.34 m/s, 114° | - | - |
| 1777979310 | 8.33° C | 99% | - | - | 2.24 m/s, 120° | - | - |
* Rain since midnight (hover to see other rain measurements)
** Current wind speed in m/s (hover to see current wind gust speed)